Tracking 29892 objects as of 21-Nov-2024
HD Live streaming from Space Station
objects crossing your sky now

THORAD AGENA D DEB

Track THORAD AGENA D DEB now!
10-day predictions


NORAD ID: 4752
Int'l Code: 1970-025DA
Perigee: 842.8 km
Apogee: 875.1 km
Inclination: 99.9 °
Period: 102.0 minutes
Semi major axis: 7229 km
RCS: 0.095 m2 (small)
Launch date: April 8, 1970
Source: United States (US)
Launch site: AIR FORCE WESTERN TEST RANGE (AFWTR)

Note: This is SATELLITE DEBRIS
Your satellite tracking list
Your tracking list is empty




NASA's NSSDC Master Catalog

Two Line Element Set (TLE):
1 04752U 70025DA  24325.84034113  .00005104  00000-0  27978-2 0  9997
2 04752  99.8726  40.4870 0022354 219.1986 140.7564 14.12204671752993
Source of the keplerian elements: AFSPC